[[{"header":{"parameterUnit":"m.s-1","parameterCategory":1,"la1":30.2991,"la2":30.254,"lo1":-89.0895,"lo2":-89.0444,"dy":0.0017,"dx":0.0017,"nx":28,"ny":28,"refTime":"2025-12-29T03:00:00:Z","depth":0,"parameterNumber":2,"parameterNumberName":"U-component_of_WINDS"},"data":[0,0,0,0,0,0,0,0,0,0,0,0,0,0,0,0,0,0,0,0,0,0,0,0,0,0,0,0,0,0,0,0,0,0,0,0,0,0,0,0,0,0,0,0,0,0,0,0,0,0,0,0,0,0,0,0,0,0,1.756,1.756,0,1.7595,1.7596,1.7596,1.7597,1.7597,1.7597,1.7596,1.7631,1.7632,1.7634,0,0,0,0,0,0,0,0,0,0,0,0,0,1.7494,1.7495,1.756,1.756,1.7561,1.7595,1.7596,1.7596,1.7598,1.7597,1.7597,1.7596,1.7631,1.7632,1.7634,0,0,0,0,0,0,0,0,0,0,0,0,0,1.7525,1.7496,1.756,1.7566,1.7567,1.7595,1.7596,1.7596,1.7598,1.7597,1.7596,1.7596,1.763,1.7632,1.7634,1.7659,0,0,1.764,1.7641,0,0,0,0,0,0,0,0,1.7524,1.7528,1.7564,1.7565,1.7566,1.7591,1.7585,1.7617,1.7598,1.7586,1.7596,1.7596,1.7618,1.7621,1.7629,1.766,1.7662,1.764,1.7641,1.7642,1.7643,0,0,0,0,0,0,0,1.7521,1.7526,1.7574,1.7565,1.7566,1.7567,1.757,1.7591,1.7605,1.7587,1.7587,1.7591,1.7619,1.7627,1.763,1.7662,1.764,1.7642,1.7643,1.7644,1.7717,1.7717,0,0,0,0,0,0,1.7518,1.7525,1.7573,1.7575,1.7543,1.7568,1.7573,1.7584,1.7605,1.7607,1.7592,1.7591,1.7624,1.7628,1.7631,1.7662,1.7642,1.7644,1.7645,1.7716,1.7717,1.7718,0,0,0,0,0,0,1.7517,1.7523,1.7571,1.755,1.7556,1.757,1.7583,1.7585,1.7593,1.7609,1.7611,1.7598,1.7624,1.7628,1.7652,1.7663,1.7645,1.7647,1.7715,1.7716,1.7717,1.7723,0,0,0,0,0,0,1.7515,1.7522,1.7531,1.755,1.7557,1.7592,1.7584,1.7586,1.7597,1.7597,1.7615,1.7617,1.7624,1.7649,1.7654,1.7665,1.7648,1.7714,1.7716,1.7717,1.7722,1.7724,1.7726,0,0,0,0,0,1.7513,1.7531,1.7532,1.7538,1.7569,1.7592,1.7596,1.7603,1.7598,1.7607,1.7617,1.7617,1.7661,1.7652,1.7657,1.7669,1.7713,1.7715,1.7717,1.7721,1.7724,1.7726,0,0,0,0,0,0,1.7512,1.7533,1.7534,1.756,1.7574,1.7592,1.7604,1.7606,1.7622,1.7621,1.7629,1.7633,1.7657,1.7666,1.7654,1.7695,1.7687,1.769,1.7688,1.7691,1.7693,1.769,1.765,0,0,0,0,0,1.7515,1.7532,1.755,1.757,1.7578,1.759,1.76,1.7605,1.762,1.7626,1.7638,1.7652,1.767,1.7681,1.7698,1.7724,1.7728,1.7735,1.7737,1.7739,1.7741,1.7756,1.7759,1.7723,1.7723,1.7723,0,0,1.7521,1.7535,1.7545,1.7571,1.7583,1.76,1.7595,1.7614,1.7627,1.7629,1.7652,1.7661,1.7678,1.7703,1.7715,1.7711,1.7752,1.7741,1.7742,1.7743,1.7758,1.7761,1.7764,1.7724,1.7724,1.7724,0,0,1.7541,1.7553,1.7572,1.7584,1.7603,1.7611,1.7616,1.7634,1.7641,1.7664,1.7667,1.7683,1.7712,1.7724,1.7735,1.7761,1.7762,1.7767,1.7777,1.7792,1.7795,1.7797,1.7807,1.781,1.7769,1.7769,1.7769,0,1.7546,1.7573,1.7581,1.76,1.7612,1.7616,1.7635,1.7646,1.7669,1.7677,1.7673,1.7711,1.7723,1.7751,1.7758,1.7766,1.7771,1.7764,1.7794,1.7796,1.7799,1.7808,1.7812,1.7769,1.7769,1.7769,1.7769,0,1.7578,1.7597,1.761,1.7632,1.7645,1.7664,1.7676,1.7688,1.7692,1.7701,1.7726,1.774,1.7761,1.7768,1.7771,1.7797,1.7795,1.7792,1.7784,1.7803,1.7811,1.7815,1.777,1.777,1.777,1.777,0,0,1.7597,1.7625,1.763,1.7641,1.7662,1.7677,1.7697,1.7717,1.7727,1.7744,1.776,1.7786,1.7785,1.7796,1.7802,1.7815,1.7835,1.7811,1.7811,1.7815,1.7865,1.7866,1.787,1.7836,1.7837,1.7838,1.7864,0,1.7619,1.7653,1.7663,1.7692,1.771,1.7715,1.7732,1.7748,1.7757,1.7773,1.7784,1.7802,1.7799,1.7806,1.7819,1.783,1.7845,1.7828,1.7852,1.7852,1.7846,1.7875,1.7876,1.7899,1.7867,1.7868,1.7868,0,1.7648,1.7666,1.7697,1.7718,1.7726,1.7741,1.7761,1.7777,1.7795,1.7801,1.7815,1.7819,1.784,1.7832,1.7862,1.785,1.786,1.7868,1.7869,1.787,1.786,1.7876,1.7907,1.791,1.7874,1.7873,1.7873,0,1.7658,1.769,1.7713,1.7723,1.7747,1.7758,1.7768,1.7786,1.7798,1.7816,1.7824,1.7844,1.7855,1.787,1.788,1.7873,1.7909,1.7902,1.7914,1.7914,1.792,1.792,1.7952,1.7928,1.7928,1.7928,1.7928,0,1.7681,1.77,1.7719,1.7733,1.7755,1.7766,1.7787,1.7798,1.7814,1.783,1.7836,1.7852,1.7864,1.7882,1.789,1.7913,1.7918,1.7924,1.7925,1.7923,1.7922,1.7929,1.7927,1.7929,1.7929,1.7929,1.7929,0,1.7696,1.7709,1.7734,1.7756,1.7762,1.7777,1.7796,1.781,1.7821,1.7842,1.7847,1.7863,1.7884,1.7897,1.7923,1.7928,1.7954,1.7955,1.7948,1.7949,1.7961,1.7959,1.7998,1.8004,1.7977,1.7977,1.7977,0,1.7709,1.7724,1.7748,1.776,1.7771,1.7789,1.7802,1.7814,1.7827,1.785,1.7862,1.7883,1.7901,1.7934,1.7948,1.7969,1.797,1.7983,1.7973,1.797,1.797,1.7969,1.7971,1.7984,1.7984,1.7984,1.7984,0,1.7731,1.7737,1.7755,1.7777,1.7792,1.7809,1.7826,1.7835,1.785,1.7865,1.7887,1.7901,1.7928,1.795,1.7972,1.7983,1.7986,1.7988,1.7992,1.7988,1.7983,1.7986,1.7952,1.7986,1.7986,1.7986,1.7986,1.7986,1.7745,1.7759,1.7778,1.7799,1.7813,1.7829,1.7844,1.7857,1.7875,1.7899,1.7905,1.7928,1.7947,1.7977,1.7989,1.8008,1.8006,1.8011,1.8013,1.8014,1.8014,1.7981,1.8012,1.8012,1.8012,1.8012,1.8012,0,1.7767,1.778,1.7799,1.7823,1.784,1.7843,1.7862,1.7876,1.7896,1.7913,1.7931,1.7957,1.7978,1.7995,1.8017,1.8029,1.8031,1.8034,1.8033,1.8035,1.8015,1.8009,1.8032,1.8032,1.8032,1.8032,1.8032,1.8032,1.7781,1.7804,1.7813,1.7844,1.7857,1.788,1.7891,1.7906,1.7921,1.7949,1.7967,1.7978,1.7996,1.8019,1.8039,1.8044,1.8051,1.8054,1.8059,1.8039,1.8037,1.8034,1.8029,1.8056,1.8056,1.8078,1.8078,1.8078]},{"header":{"parameterUnit":"m.s-1","parameterCategory":1,"la1":30.2991,"la2":30.254,"lo1":-89.0895,"lo2":-89.0444,"dy":0.0017,"dx":0.0017,"nx":28,"ny":28,"refTime":"2025-12-29T03:00:00:Z","depth":0,"parameterNumber":3,"parameterNumberName":"V-component_of_WINDS"},"data":[0,0,0,0,0,0,0,0,0,0,0,0,0,0,0,0,0,0,0,0,0,0,0,0,0,0,0,0,0,0,0,0,0,0,0,0,0,0,0,0,0,0,0,0,0,0,0,0,0,0,0,0,0,0,0,0,0,0,-7.212,-7.2122,0,-7.2294,-7.2296,-7.2298,-7.2235,-7.2231,-7.2227,-7.2223,-7.2397,-7.2405,-7.2413,0,0,0,0,0,0,0,0,0,0,0,0,0,-7.1728,-7.1735,-7.212,-7.2122,-7.2124,-7.2294,-7.2296,-7.2299,-7.2235,-7.2231,-7.2226,-7.2221,-7.2394,-7.2404,-7.2414,0,0,0,0,0,0,0,0,0,0,0,0,0,-7.19,-7.1738,-7.212,-7.2113,-7.2114,-7.2294,-7.2297,-7.2299,-7.2236,-7.223,-7.2225,-7.2219,-7.2391,-7.2403,-7.2415,-7.261,0,0,-7.2453,-7.2459,0,0,0,0,0,0,0,0,-7.189,-7.1914,-7.2112,-7.2114,-7.2116,-7.2237,-7.2222,-7.2403,-7.2238,-7.219,-7.2223,-7.2216,-7.2348,-7.2364,-7.2409,-7.2618,-7.2625,-7.2454,-7.2462,-7.2467,-7.2471,0,0,0,0,0,0,0,-7.1878,-7.1906,-7.2189,-7.2115,-7.2117,-7.21,-7.2118,-7.2256,-7.23,-7.2194,-7.2189,-7.2211,-7.2348,-7.2397,-7.2413,-7.2628,-7.2454,-7.2465,-7.2473,-7.2477,-7.3004,-7.301,0,0,0,0,0,0,-7.1866,-7.1897,-7.2183,-7.2194,-7.1986,-7.2112,-7.2132,-7.2204,-7.2298,-7.2307,-7.2216,-7.2208,-7.2379,-7.2398,-7.2419,-7.2653,-7.2467,-7.2479,-7.2486,-7.2998,-7.3006,-7.3013,0,0,0,0,0,0,-7.1858,-7.1892,-7.2176,-7.2044,-7.2079,-7.2125,-7.2206,-7.221,-7.226,-7.2315,-7.2322,-7.2259,-7.2375,-7.2401,-7.2563,-7.2658,-7.2484,-7.2496,-7.299,-7.3,-7.3009,-7.3122,0,0,0,0,0,0,-7.1847,-7.189,-7.1965,-7.2047,-7.2087,-7.2319,-7.2212,-7.2218,-7.2282,-7.2272,-7.2357,-7.2365,-7.2372,-7.2545,-7.2575,-7.2672,-7.2505,-7.2982,-7.2995,-7.3006,-7.311,-7.3134,-7.3155,0,0,0,0,0,-7.1833,-7.1989,-7.1969,-7.2004,-7.2182,-7.2325,-7.2348,-7.2354,-7.229,-7.2365,-7.2401,-7.2363,-7.2642,-7.2562,-7.2596,-7.2697,-7.2976,-7.2991,-7.3005,-7.31,-7.313,-7.3155,0,0,0,0,0,0,-7.1916,-7.1999,-7.1979,-7.2166,-7.2239,-7.2314,-7.2409,-7.2385,-7.2477,-7.2464,-7.2467,-7.2486,-7.2653,-7.2691,-7.26,-7.289,-7.2799,-7.2821,-7.286,-7.2888,-7.2911,-7.2898,-7.2516,0,0,0,0,0,-7.1956,-7.2066,-7.2133,-7.2291,-7.2329,-7.2364,-7.2426,-7.2425,-7.25,-7.253,-7.2577,-7.2651,-7.2755,-7.2824,-7.2923,-7.3115,-7.3132,-7.3201,-7.3224,-7.3242,-7.3261,-7.3366,-7.3397,-7.3061,-7.3061,-7.3061,0,0,-7.2039,-7.2099,-7.2168,-7.231,-7.2366,-7.2479,-7.239,-7.2513,-7.2597,-7.2548,-7.2705,-7.2742,-7.2824,-7.3002,-7.3083,-7.3039,-7.3358,-7.3261,-7.3275,-7.3285,-7.3384,-7.3416,-7.3444,-7.3071,-7.3069,-7.3068,0,0,-7.225,-7.2306,-7.2445,-7.2504,-7.2591,-7.2613,-7.2646,-7.2726,-7.2749,-7.2906,-7.2872,-7.2971,-7.3151,-7.321,-7.3264,-7.3498,-7.3466,-7.353,-7.3648,-7.375,-7.3777,-7.38,-7.3884,-7.3913,-7.3549,-7.3549,-7.3549,0,-7.2342,-7.2513,-7.2518,-7.2646,-7.2708,-7.2671,-7.2811,-7.2867,-7.2982,-7.3026,-7.2975,-7.32,-7.3253,-7.3444,-7.3502,-7.3546,-7.3584,-7.352,-7.3773,-7.3796,-7.3818,-7.3898,-7.3929,-7.3556,-7.3556,-7.3555,-7.3554,0,-7.2623,-7.2742,-7.2843,-7.2957,-7.3031,-7.3163,-7.3187,-7.3261,-7.3254,-7.328,-7.3441,-7.3502,-7.3613,-7.3659,-7.3651,-7.385,-7.382,-7.3771,-7.368,-7.3858,-7.3932,-7.3963,-7.3567,-7.3564,-7.3562,-7.356,0,0,-7.289,-7.3006,-7.3043,-7.3094,-7.3188,-7.3279,-7.341,-7.352,-7.3583,-7.3664,-7.3773,-7.3926,-7.3882,-7.3943,-7.3942,-7.4032,-7.4213,-7.3972,-7.3974,-7.4015,-7.4435,-7.4471,-7.4506,-7.4192,-7.4198,-7.4203,-7.4428,0,-7.3108,-7.3339,-7.3348,-7.3558,-7.3668,-7.3634,-7.3747,-7.3817,-7.3845,-7.3941,-7.3971,-7.408,-7.4014,-7.4051,-7.4138,-7.4173,-7.4297,-7.4156,-7.4293,-7.4298,-7.4274,-7.4545,-7.4584,-7.4793,-7.4457,-7.4462,-7.4466,0,-7.3393,-7.3485,-7.3707,-7.3785,-7.3832,-7.3934,-7.4036,-7.4128,-7.4206,-7.422,-7.4289,-7.4275,-7.4407,-7.4312,-7.4493,-7.4397,-7.4453,-7.4479,-7.4487,-7.45,-7.4393,-7.4565,-7.486,-7.4892,-7.4512,-7.4508,-7.4505,0,-7.3566,-7.3745,-7.39,-7.3945,-7.4041,-7.4114,-7.4156,-7.4228,-7.4294,-7.4382,-7.4425,-7.4527,-7.4583,-7.4661,-7.4675,-7.4604,-7.4857,-7.4762,-7.4871,-7.4871,-7.4926,-7.4923,-7.5234,-7.4962,-7.4962,-7.4961,-7.4961,0,-7.3809,-7.3946,-7.398,-7.4076,-7.4228,-7.4236,-7.4385,-7.4423,-7.4487,-7.4588,-7.4565,-7.466,-7.4672,-7.477,-7.4782,-7.493,-7.4955,-7.497,-7.4971,-7.4972,-7.497,-7.5009,-7.4995,-7.497,-7.4968,-7.4966,-7.4965,0,-7.4028,-7.4056,-7.4224,-7.4301,-7.4324,-7.4433,-7.4498,-7.4589,-7.4615,-7.4744,-7.4774,-7.4814,-7.4929,-7.495,-7.5085,-7.5092,-7.5269,-7.5256,-7.5244,-7.5243,-7.5351,-7.534,-7.5698,-7.5745,-7.5442,-7.5445,-7.5448,0,-7.4182,-7.4287,-7.4376,-7.4443,-7.449,-7.4598,-7.4666,-7.4677,-7.4748,-7.4844,-7.4924,-7.5036,-7.5127,-7.5311,-7.5351,-7.5454,-7.5442,-7.5561,-7.5457,-7.5455,-7.5444,-7.5438,-7.5448,-7.558,-7.5584,-7.5586,-7.5588,0,-7.4451,-7.446,-7.4559,-7.4664,-7.4745,-7.4828,-7.4906,-7.4961,-7.4983,-7.5064,-7.5182,-7.5252,-7.539,-7.5502,-7.5604,-7.5646,-7.5622,-7.5621,-7.5651,-7.5654,-7.5643,-7.565,-7.5298,-7.5612,-7.561,-7.5608,-7.5607,-7.5606,-7.4642,-7.4734,-7.4811,-7.4922,-7.4983,-7.5056,-7.5146,-7.5184,-7.5283,-7.5398,-7.5398,-7.5526,-7.56,-7.5736,-7.5785,-7.5884,-7.5847,-7.5891,-7.5902,-7.5913,-7.5924,-7.5627,-7.5903,-7.5902,-7.5902,-7.5901,-7.5901,0,-7.491,-7.4958,-7.5061,-7.5172,-7.5259,-7.5229,-7.5314,-7.5389,-7.5503,-7.5575,-7.5665,-7.58,-7.5908,-7.5958,-7.6064,-7.6134,-7.6125,-7.6162,-7.6156,-7.6167,-7.5951,-7.5914,-7.6167,-7.6167,-7.6167,-7.6167,-7.6167,-7.6167,-7.506,-7.5214,-7.5232,-7.5415,-7.5462,-7.5589,-7.564,-7.5708,-7.5765,-7.5918,-7.6009,-7.604,-7.6103,-7.6214,-7.6311,-7.6322,-7.6362,-7.6405,-7.6411,-7.6209,-7.6182,-7.6156,-7.6121,-7.6413,-7.6414,-7.6618,-7.6619,-7.6621]}]]